Printer-friendly version

IAU Minor Planet Center

Minor Planet Center

MPEC 2004-L51 : 2004 LV3

The following Minor Planet Electronic Circular may be linked-to from your own Web pages, but must not otherwise be redistributed electronically.


Read MPEC 2004-L50 Read MPEC 2004-L52


M.P.E.C. 2004-L51                                Issued 2004 June 13, 12:23 UT

     The Minor Planet Electronic Circulars contain information on unusual
         minor planets and routine data on comets.  They are published
   on behalf of Commission 20 of the International Astronomical Union by the
          Minor Planet Center, Smithsonian Astrophysical Observatory,
                          Cambridge, MA 02138, U.S.A.

         Supported in part by the Steven and Michele Kirsch Foundation
             Prepared using the Tamkin Foundation Computer Network

                              MPC@CFA.HARVARD.EDU
          URL http://cfa-www.harvard.edu/iau/mpc.html  ISSN 1523-6714

                                   2004 LV3

Observations:
     K04L03V* C2004 06 12.37128 21 23 54.97 -04 05 47.1          18.7   EL051704
     K04L03V  C2004 06 12.38134 21 23 54.92 -04 04 59.0          19.8   EL051704
     K04L03V  C2004 06 12.39141 21 23 54.96 -04 04 10.6          19.0   EL051704
     K04L03V  C2004 06 12.40149 21 23 54.92 -04 03 22.3          19.8   EL051704
     K04L03V  C2004 06 12.41156 21 23 54.85 -04 02 33.6          19.1   EL051704
     K04L03V  C2004 06 13.00347 21 23 55.86 -03 14 45.8          18.4 R EL051A50
     K04L03V  C2004 06 13.00491 21 23 55.98 -03 14 39.8          18.3 R EL051A50
     K04L03V  C2004 06 13.00633 21 23 55.99 -03 14 32.9          18.0 R EL051A50
     K04L03V  C2004 06 13.00919 21 23 56.00 -03 14 18.7          18.2 R EL051A50
     K04L03V  C2004 06 13.30978 21 23 56.52 -02 49 32.7          19.0 R EL051G90
     K04L03V  C2004 06 13.31333 21 23 56.56 -02 49 15.6          19.0 R EL051G90
     K04L03V  C2004 06 13.31688 21 23 56.51 -02 48 57.6          19.3 R EL051G90
     K04L03V  C2004 06 13.45330 21 23 55.62 -02 37 41.8          19.3 R EL051926
     K04L03V  C2004 06 13.45433 21 23 55.61 -02 37 37.2          19.1 R EL051926
     K04L03V  C2004 06 13.45531 21 23 55.62 -02 37 32.0          19.3 R EL051926

Observer details:
704 Lincoln Laboratory ETS, New Mexico.  Observers M. Blythe, F. Shelly,
    M. Bezpalko, R. Huber, L. Manguso, D. Torres, R. Kracke, M. McCleary,
    H. Stange, A. Milner.  Measurers J. Stuart, R. Sayer, J. Evans, J. Kommers.
    1.0-m f/2.15 reflector + CCD.
926 Tenagra II Observatory.  Observers P. R. Holvorcem, M. Schwartz.  0.81-m
    f/7 Ritchey-Chretien + CCD.
A50 Andrushivka Astronomical Observatory.  Observers Y. Ivashchenko,
    O. Gerashchenko, V. Lokot, O. Drobenko.  0.6-m reflector + CCD.
G90 Three Buttes Observatory, Tucson.  Observer G. R. Jones.  0.4-m
    Ritchey-Chretien + CCD.

Orbital elements:
2004 LV3                                                             PHA 0.016D
Epoch 2004 June 4.0 TT = JDT 2453160.5                  MPC
M 273.47985              (2000.0)            P               Q
n   0.70280419     Peri.  118.84447     +0.67378462     -0.44810276
a   1.2528906      Node   273.86762     +0.28024131     +0.89070185
e   0.2813930      Incl.   36.07855     +0.68372443     +0.07651225
P   1.40           H   18.7           G   0.15
From 15 observations 2004 June 12-13.

Ephemeris:
2004 LV3                 a,e,i = 1.25, 0.28, 36                  q = 0.9003
Date    TT    R. A. (2000) Decl.     Delta      r     Elong.  Phase     V
2004 06 14    21 23.91   -01 51.9    0.434    1.287   119.6    43.3    19.1
2004 06 24    21 19.87   +14 28.9    0.368    1.244   120.5    44.8    18.7
2004 07 04    21 06.60   +34 11.4    0.341    1.200   114.8    50.3    18.6
2004 07 14    20 38.33   +53 00.7    0.355    1.155   104.0    58.6    18.9
2004 07 24    19 43.17   +66 58.5    0.398    1.110    93.0    66.0    19.3
2004 08 03    18 03.03   +74 56.9    0.455    1.066    83.8    71.1    19.6
2004 08 13    15 48.05   +77 07.7    0.513    1.024    76.6    74.2    19.9
2004 08 23    14 00.46   +75 21.7    0.565    0.986    71.1    76.0    20.1
2004 09 02    12 54.39   +71 56.2    0.607    0.953    67.0    77.0    20.2
2004 09 12    12 13.06   +67 40.6    0.637    0.927    64.1    77.7    20.3
2004 09 22    11 45.85   +62 40.4    0.652    0.909    62.4    78.1    20.3
2004 10 02    11 27.78   +56 47.9    0.653    0.901    61.9    78.4    20.3
2004 10 12    11 16.44   +49 55.0    0.643    0.903    62.4    78.5    20.3
2004 10 22    11 10.05   +41 55.7    0.622    0.915    64.1    78.2    20.2
2004 11 01    11 07.12   +32 44.6    0.595    0.936    66.9    77.3    20.1
2004 11 11    11 06.40   +22 19.1    0.567    0.965    70.7    75.6    20.0
2004 11 21    11 06.53   +10 43.1    0.541    1.000    75.5    73.0    19.9
2004 12 01    11 06.23   -01 48.4    0.524    1.040    80.8    69.4    19.8
2004 12 11    11 04.07   -14 43.9    0.518    1.083    86.3    65.2    19.7
2004 12 21    10 58.21   -27 17.0    0.525    1.127    91.5    60.7    19.7
2004 12 31    10 46.54   -38 38.0    0.546    1.172    95.8    56.6    19.8
2005 01 10    10 26.45   -48 05.0    0.578    1.217    99.1    52.9    19.9
2005 01 20    09 56.00   -55 06.1    0.618    1.261   101.3    49.9    20.0
2005 01 30    09 16.53   -59 23.9    0.663    1.303   102.7    47.5    20.2
2005 02 09    08 34.65   -61 01.9    0.710    1.343   103.4    45.6    20.3
2005 02 19    07 59.55   -60 29.4    0.758    1.381   103.6    44.1    20.5
2005 03 01    07 36.44   -58 31.8    0.806    1.416   103.5    42.9    20.6
2005 03 11    07 25.34   -55 48.0    0.853    1.448   103.1    41.9    20.8
2005 03 21    07 24.16   -52 44.1    0.898    1.478   102.5    41.1    20.9
2005 03 31    07 30.46   -49 36.5    0.942    1.505   101.6    40.6    21.1
2005 04 10    07 42.36   -46 33.1    0.986    1.528   100.5    40.1    21.2
2005 04 20    07 58.54   -43 39.4    1.030    1.549    99.2    39.8    21.3
2005 04 30    08 17.92   -40 58.5    1.075    1.566    97.5    39.6    21.4
2005 05 10    08 39.78   -38 31.6    1.122    1.581    95.6    39.5    21.5
2005 05 20    09 03.55   -36 20.3    1.171    1.592    93.4    39.4    21.6
2005 05 30    09 28.72   -34 24.7    1.222    1.599    90.8    39.3    21.7
2005 06 09    09 54.92   -32 44.6    1.277    1.604    88.0    39.2    21.8
2005 06 19    10 21.86   -31 19.7    1.336    1.605    84.9    39.1    21.9
2005 06 29    10 49.26   -30 08.8    1.397    1.604    81.6    38.8    22.0

Timothy B. Spahr             (C) Copyright 2004 MPC           M.P.E.C. 2004-L51

Read MPEC 2004-L50 Read MPEC 2004-L52


Our Web policy. Index to the CBAT/MPC/ICQ pages.


Valid HTML 4.01!